Gustavus, AK

11:36 AM AKDT on July 22, 2017 (GMT -0800)
Gustavus

Weather History for PAGS - October, 2011

Change the Weather History Date:

Monday, October 24, 2011

  Actual Average Record
Temperature  
Mean Temperature 44 °F -  
Max Temperature 46 °F 45 °F 55 °F (2010)
Min Temperature 42 °F 32 °F 16 °F (1991)
Degree Days  
Heating Degree Days 21    
Moisture  
Dew Point 40 °F    
Average Humidity 83    
Maximum Humidity 87    
Minimum Humidity 76    
Precipitation  
Precipitation 0.00 in - - ()
Sea Level Pressure  
Sea Level Pressure 30.02 in    
Wind  
Wind Speed 5 mph (ESE)    
Max Wind Speed 12 mph    
Max Gust Speed -    
Visibility 9 miles    
Events      
Averages and records for this station are not official NWS values.
T = Trace of Precipitation, MM = Missing Value Source: NWS Daily Summary

Daily Weather History Graph

Daily Weather History Graph

Search for Another Location

Airport or City:

Trip Planner

Search our weather history database for the weather conditions in past years. The results will help you decide how hot, cold, wet, or windy it might be!

Date:

Astronomy

Oct. 24, 2011 Rise Set
Actual Time 7:59 AM AKDT 5:33 PM AKDT
Civil Twilight 7:18 AM AKDT 6:14 PM AKDT
Nautical Twilight 6:31 AM AKDT 7:01 PM AKDT
Astronomical Twilight 5:45 AM AKDT 7:46 PM AKDT
Moon 5:03 AM AKDT (10/24) 4:18 PM AKDT (10/24)
Length of Visible Light 10h 56m
Length of Day
9h 34m
Waning Crescent, 6% of the Moon is Illuminated
Oct 24
Waning Crescent
Oct 26
New
Nov 2
First Quarter
Nov 10
Full
Nov 18
Last Quarter

Hourly Weather History & Observations

Time (AKDT) Temp. Windchill Dew Point Humidity Pressure Visibility Wind Dir Wind Speed Gust Speed Precip Events Conditions
12:16 AM 44.6 °F - 39.2 °F 81% 29.89 in 9.0 mi Calm Calm - N/A   Overcast
12:36 AM 42.8 °F 41.1 °F 39.2 °F 87% 29.89 in 8.0 mi East 3.5 mph - N/A   Overcast
12:56 AM 42.8 °F - 39.2 °F 87% 29.90 in 10.0 mi Calm Calm - N/A   Overcast
1:16 AM 42.8 °F - 39.2 °F 87% 29.90 in 10.0 mi Calm Calm - N/A   Overcast
1:36 AM 42.8 °F 41.1 °F 39.2 °F 87% 29.90 in 9.0 mi NE 3.5 mph - N/A   Overcast
1:56 AM 42.8 °F 41.1 °F 39.2 °F 87% 29.91 in 10.0 mi ESE 3.5 mph - N/A   Overcast
2:16 AM 42.8 °F 41.1 °F 39.2 °F 87% 29.91 in 10.0 mi ESE 3.5 mph - N/A   Overcast
2:36 AM 42.8 °F 41.1 °F 39.2 °F 87% 29.92 in 10.0 mi SE 3.5 mph - N/A   Overcast
2:56 AM 42.8 °F 41.1 °F 39.2 °F 87% 29.92 in 10.0 mi SE 3.5 mph - N/A   Mostly Cloudy
3:16 AM 42.8 °F 39.3 °F 39.2 °F 87% 29.92 in 9.0 mi ESE 5.8 mph - N/A   Mostly Cloudy
3:36 AM 42.8 °F 40.1 °F 39.2 °F 87% 29.92 in 10.0 mi East 4.6 mph - N/A   Overcast
3:56 AM 44.6 °F 43.1 °F 39.2 °F 81% 29.93 in 6.0 mi East 3.5 mph - N/A   Overcast
4:16 AM 44.6 °F 43.1 °F 41.0 °F 87% 29.93 in 8.0 mi ESE 3.5 mph - N/A   Overcast
4:36 AM 42.8 °F 39.3 °F 39.2 °F 87% 29.94 in 5.0 mi SE 5.8 mph - N/A   Overcast
4:56 AM 42.8 °F 38.0 °F 39.2 °F 87% 29.94 in 8.0 mi East 8.1 mph - N/A   Overcast
5:16 AM 42.8 °F 39.3 °F 39.2 °F 87% 29.94 in 10.0 mi East 5.8 mph - N/A   Overcast
5:36 AM 42.8 °F 39.3 °F 39.2 °F 87% 29.94 in 5.0 mi East 5.8 mph - N/A   Overcast
5:56 AM 42.8 °F 38.0 °F 39.2 °F 87% 29.95 in 9.0 mi ESE 8.1 mph - N/A   Overcast
6:16 AM 44.6 °F 38.8 °F 39.2 °F 81% 29.95 in 10.0 mi ESE 11.5 mph - N/A   Overcast
6:36 AM 44.6 °F 38.8 °F 41.0 °F 87% 29.95 in 10.0 mi ESE 11.5 mph - N/A   Overcast
6:56 AM 44.6 °F 40.2 °F 39.2 °F 81% 29.96 in 10.0 mi SE 8.1 mph - N/A   Overcast
7:16 AM 44.6 °F 39.7 °F 39.2 °F 81% 29.97 in 10.0 mi ESE 9.2 mph - N/A   Overcast
7:56 AM 44.6 °F 39.7 °F 39.2 °F 81% 29.97 in 10.0 mi ESE 9.2 mph - N/A   Overcast
8:16 AM 44.6 °F 40.2 °F 39.2 °F 81% 29.98 in 10.0 mi ESE 8.1 mph - N/A   Overcast
8:36 AM 44.6 °F 40.2 °F 39.2 °F 81% 29.99 in 10.0 mi ESE 8.1 mph - N/A   Overcast
8:56 AM 44.6 °F 42.2 °F 39.2 °F 81% 30.00 in 10.0 mi SSE 4.6 mph - N/A   Overcast
9:16 AM 44.6 °F 39.7 °F 39.2 °F 81% 30.00 in 10.0 mi ESE 9.2 mph - N/A   Overcast
9:36 AM 44.6 °F 40.7 °F 39.2 °F 81% 30.01 in 10.0 mi SE 6.9 mph - N/A   Overcast
9:56 AM 44.6 °F 40.7 °F 39.2 °F 81% 30.02 in 10.0 mi SE 6.9 mph - N/A   Overcast
10:16 AM 46.4 °F 42.9 °F 39.2 °F 76% 30.03 in 10.0 mi ESE 6.9 mph - N/A   Overcast
10:36 AM 46.4 °F 42.4 °F 41.0 °F 81% 30.03 in 10.0 mi ESE 8.1 mph - N/A   Overcast
10:56 AM 46.4 °F 43.5 °F 41.0 °F 81% 30.04 in 10.0 mi SE 5.8 mph - N/A   Overcast
11:16 AM 46.4 °F 41.9 °F 41.0 °F 81% 30.05 in 10.0 mi SE 9.2 mph - N/A   Overcast
11:36 AM 46.4 °F 43.5 °F 39.2 °F 76% 30.06 in 10.0 mi SSE 5.8 mph - N/A   Overcast
11:56 AM 46.4 °F 44.3 °F 41.0 °F 81% 30.07 in 10.0 mi ESE 4.6 mph - N/A   Overcast
12:16 PM 46.4 °F 43.5 °F 41.0 °F 81% 30.07 in 10.0 mi ESE 5.8 mph - N/A   Overcast
12:36 PM 46.4 °F 42.4 °F 41.0 °F 81% 30.08 in 10.0 mi ESE 8.1 mph - N/A   Overcast
12:56 PM 46.4 °F 42.9 °F 41.0 °F 81% 30.09 in 7.0 mi SSE 6.9 mph - N/A   Overcast
1:16 PM 46.4 °F 45.2 °F 39.2 °F 76% 30.09 in 10.0 mi ESE 3.5 mph - N/A   Mostly Cloudy
1:36 PM 46.4 °F 43.5 °F 41.0 °F 81% 30.09 in 10.0 mi East 5.8 mph - N/A   Overcast
1:56 PM 46.4 °F 42.9 °F 41.0 °F 81% 30.09 in 10.0 mi ESE 6.9 mph - N/A   Overcast
2:16 PM 46.4 °F 44.3 °F 41.0 °F 81% 30.10 in 10.0 mi ESE 4.6 mph - N/A   Overcast
2:36 PM 46.4 °F 44.3 °F 41.0 °F 81% 30.11 in 4.0 mi WSW 4.6 mph - N/A   Overcast
2:56 PM 46.4 °F 42.9 °F 39.2 °F 76% 30.11 in 7.0 mi ESE 6.9 mph - N/A   Overcast
3:16 PM 46.4 °F 44.3 °F 39.2 °F 76% 30.12 in 10.0 mi West 4.6 mph - N/A   Overcast
3:36 PM 44.6 °F 42.2 °F 41.0 °F 87% 30.13 in 8.0 mi SW 4.6 mph - N/A   Overcast
3:56 PM 44.6 °F 41.4 °F 39.2 °F 81% 30.13 in 10.0 mi SE 5.8 mph - N/A   Overcast
4:16 PM 44.6 °F 43.1 °F 41.0 °F 87% 30.14 in 10.0 mi South 3.5 mph - N/A   Overcast
4:36 PM 44.6 °F 40.2 °F 41.0 °F 87% 30.14 in 10.0 mi East 8.1 mph - N/A   Overcast
4:56 PM 44.6 °F 40.7 °F 41.0 °F 87% 30.14 in 10.0 mi East 6.9 mph - N/A   Overcast
5:16 PM 44.6 °F 43.1 °F 41.0 °F 87% 30.14 in 10.0 mi East 3.5 mph - N/A   Overcast
5:36 PM 44.6 °F 41.4 °F 39.2 °F 81% 30.14 in 10.0 mi SE 5.8 mph - N/A   Overcast
5:56 PM 44.6 °F 39.7 °F 41.0 °F 87% 30.15 in 9.0 mi ESE 9.2 mph - N/A   Overcast
6:16 PM 44.6 °F 40.2 °F 41.0 °F 87% 30.15 in 10.0 mi SE 8.1 mph - N/A   Overcast
6:36 PM 44.6 °F 40.2 °F 41.0 °F 87% 30.15 in 10.0 mi ESE 8.1 mph - N/A   Overcast
6:56 PM 44.6 °F 39.2 °F 41.0 °F 87% 30.15 in 10.0 mi ESE 10.4 mph - N/A   Overcast
7:16 PM 46.4 °F 41.1 °F 39.2 °F 76% 30.15 in 10.0 mi ESE 11.5 mph - N/A   Overcast
7:36 PM 46.4 °F 41.9 °F 39.2 °F 76% 30.15 in 10.0 mi ESE 9.2 mph - N/A   Overcast
7:56 PM 46.4 °F 41.9 °F 41.0 °F 81% 30.16 in 10.0 mi East 9.2 mph - N/A   Overcast
8:16 PM 44.6 °F 40.2 °F 39.2 °F 81% 30.16 in 10.0 mi ESE 8.1 mph - N/A   Overcast
8:36 PM 44.6 °F 43.1 °F 39.2 °F 81% 30.17 in 10.0 mi SE 3.5 mph - N/A   Overcast
8:56 PM 44.6 °F 40.2 °F 39.2 °F 81% 30.18 in 10.0 mi SE 8.1 mph - N/A   Overcast
9:16 PM 44.6 °F 39.7 °F 39.2 °F 81% 30.18 in 10.0 mi SE 9.2 mph - N/A   Overcast
9:36 PM 44.6 °F 39.7 °F 39.2 °F 81% 30.17 in 10.0 mi SE 9.2 mph - N/A   Overcast
9:56 PM 44.6 °F 39.2 °F 39.2 °F 81% 30.17 in 10.0 mi SE 10.4 mph - N/A   Mostly Cloudy
10:16 PM 44.6 °F 39.2 °F 39.2 °F 81% 30.17 in 10.0 mi ESE 10.4 mph - N/A   Overcast
10:36 PM 46.4 °F 41.5 °F 39.2 °F 76% 30.17 in 10.0 mi ESE 10.4 mph 16.1 mph N/A   Overcast
10:56 PM 46.4 °F 41.5 °F 39.2 °F 76% 30.17 in 10.0 mi ESE 10.4 mph - N/A   Overcast
11:16 PM 44.6 °F 40.7 °F 39.2 °F 81% 30.18 in 10.0 mi ESE 6.9 mph - N/A   Overcast
11:36 PM 44.6 °F 39.2 °F 39.2 °F 81% 30.18 in 10.0 mi SE 10.4 mph - N/A   Overcast
11:56 PM 44.6 °F 38.4 °F 39.2 °F 81% 30.18 in 10.0 mi SE 12.7 mph - N/A   Overcast